Flag for India Weather past 2 weeks in Vasai-Virar, Maharashtra, India

Now
93 °F

Haze.


Feels Like: 113 °F
Forecast: 77 / 94 °F
Wind: 7 mph from West

Location: Bombay / Santacruz

Current Time: Oct 2, 2014 at 4:25:51 PM

Latest Report: Oct 2, 2014 at 3:40 PM


Visibility: 2 mi

Pressure: 29.77 "Hg

Humidity: 67%

Dew point: 81 °F

Location of Vasai-VirarLocation

Historic Weather in Vasai-Virar — Graph

°F

Vasai-Virar temperature yesterday

Maximum temperature yesterday: 91 °F (at 12:10 PM)
Minimum temperature yesterday: 77 °F (at 12:40 AM)
Average temperature yesterday: 83 °F

Past Weeks' High & Low Weather Summary

 TemperatureHumidityPressure
High99 °F (Sep 29, 1:40 PM)100% (Sep 19, 9:10 AM)29.92 "Hg (Sep 19, 9:10 AM)
Low77 °F (Sep 21, 3:40 AM)39% (Sep 30, 1:10 PM)29.68 "Hg (Sep 17, 2:40 PM)
Average84 °F79%29.81 "Hg
* Reported Sep 17 2:40 PM — Oct 2 3:10 PM, Vasai-Virar, Weather by CustomWeather, © 2014

Note: Actual official high and low records may vary slightly from our data, if they occured in-between our weather recording intervals... More about our weather records

Advertising

Vasai-Virar weather history for previous 24 hours

 ConditionsComfort  
Time TempWeatherWind HumidityBarometerVisibility
3:10 PM
Oct 2
93 °FHaze.7 mph67%29.77 "Hg2 mi
2:40 PM93 °FPassing clouds.8 mph67%29.80 "Hg2 mi
2:10 PM95 °FPassing clouds.9 mph60%29.80 "Hg2 mi
1:40 PM93 °FScattered clouds.12 mph67%29.83 "Hg2 mi
1:10 PM93 °FScattered clouds.7 mph59%29.83 "Hg2 mi
12:40 PM93 °FScattered clouds.9 mph59%29.86 "Hg2 mi
12:10 PM95 °FScattered clouds.7 mph50%29.86 "Hg2 mi
11:40 AM93 °FPassing clouds.5 mph56%29.89 "Hg2 mi
11:10 AM91 °FPassing clouds.7 mph59%29.89 "Hg2 mi
10:10 AM90 °FScattered clouds.3 mph55%29.92 "Hg1 mi
9:40 AM88 °FScattered clouds.5 mph66%29.92 "Hg1 mi
9:10 AM86 °FScattered clouds.3 mph75%29.92 "Hg1 mi
8:40 AM84 °FScattered clouds.3 mph74%29.92 "Hg1 mi
8:10 AM82 °FScattered clouds.3 mph79%29.89 "Hg1 mi
7:40 AM81 °FScattered clouds.3 mph84%29.89 "Hg1 mi
7:10 AM81 °FBroken clouds.No wind84%29.89 "Hg1 mi
6:40 AM81 °FPartly cloudy.3 mph84%29.86 "Hg1 mi
6:10 AM79 °FPassing clouds.No wind89%29.86 "Hg1 mi
5:40 AM79 °FPassing clouds.3 mph89%29.86 "Hg1 mi
5:10 AM79 °FPartly cloudy.No wind79%29.83 "Hg1 mi
4:40 AM77 °FPartly cloudy.No wind89%29.83 "Hg1 mi
4:10 AM79 °FPartly cloudy.No wind89%29.83 "Hg1 mi
3:40 AM79 °FPartly cloudy.5 mph84%29.83 "Hg1 mi
3:10 AM81 °FPartly cloudy.3 mph79%29.83 "Hg1 mi
2:40 AM81 °FPartly cloudy.3 mph79%29.83 "Hg1 mi
2:10 AM81 °FPartly cloudy.5 mph79%29.83 "Hg1 mi
1:40 AM81 °FPartly cloudy.5 mph79%29.83 "Hg1 mi
1:10 AM79 °FPartly cloudy.8 mph79%29.86 "Hg1 mi
12:40 AM79 °FPartly cloudy.9 mph89%29.86 "Hg1 mi
12:10 AM79 °FPartly cloudy.9 mph79%29.86 "Hg1 mi
11:40 PM
Oct 1
81 °FPartly cloudy.7 mph74%29.86 "Hg1 mi
11:10 PM79 °FPartly cloudy.7 mph79%29.89 "Hg1 mi
10:40 PM79 °FPartly cloudy.7 mph79%29.89 "Hg1 mi
10:10 PM79 °FPartly cloudy.5 mph79%29.89 "Hg1 mi
9:40 PM81 °FPartly cloudy.5 mph74%29.89 "Hg1 mi
9:10 PM81 °FThunderstorms. Partly cloudy.5 mph74%29.92 "Hg1 mi
8:40 PM79 °FThunderstorms. Partly cloudy.7 mph84%29.89 "Hg1 mi
8:10 PM79 °FThunderstorms. Partly cloudy.7 mph84%29.89 "Hg1 mi
7:40 PM79 °FThunderstorms. Partly cloudy.6 mph84%29.89 "Hg1 mi
7:10 PM77 °FThunderstorms. Partly cloudy.7 mph89%29.89 "Hg1 mi
6:40 PM77 °FThunderstorms. Broken clouds.10 mph79%29.89 "Hg1 mi
6:10 PM82 °FThunderstorms. Broken clouds.15 mph70%29.86 "Hg1 mi
5:10 PM90 °FPartly sunny.10 mph79%29.80 "Hg2 mi
4:40 PM91 °FPartly sunny.7 mph71%29.80 "Hg2 mi
4:10 PM90 °FScattered clouds.7 mph75%29.80 "Hg2 mi
Weather by CustomWeather, © 2014

See weather overviewHow to use our weather pages